Home   Weather   Kiruna   Past weeks

Flag for Sweden Past Weather in Kiruna, Sweden — Yesterday and Last 2 Weeks

Now
14 °F

Light snow. Overcast.


Feels Like: 8 °F
Forecast: 16 / 30 °F
Wind: 3 mph from South

Location: Kiruna Airport

Current Time: Apr 25, 2017 at 3:27:38 am

Latest Report: Apr 25, 2017 at 2:50 am


Visibility: N/A

Pressure: 29.74 "Hg (27.75 "Hg at 532m altitude)

Humidity: 92%

Dew Point: 12 °F

Location of KirunaLocation

Past Weather in Kiruna — Graph

°F

Kiruna Temperature Yesterday

Maximum temperature yesterday: 32 °F (at 2:50 pm)
Minimum temperature yesterday: 16 °F (at 11:50 pm)
Average temperature yesterday: 25 °F

High & Low Weather Summary for the Past Weeks

 TemperatureHumidityPressure
High37 °F (Apr 20, 2:20 pm)100% (Apr 10, 1:20 am)30.30 "Hg (Apr 10, 1:20 am)
Low3 °F (Apr 17, 5:20 am)37% (Apr 17, 3:50 pm)28.97 "Hg (Apr 21, 8:20 am)
Average24 °F78%29.68 "Hg
* Reported Apr 10 1:20 am — Apr 25 1:50 am, Kiruna, Weather by CustomWeather, © 2017

Note: Actual official high and low records may vary slightly from our data, if they occured in-between our weather recording intervals... More about our weather records

Advertising

Kiruna Weather History for the Previous 24 Hours

Scroll right to see more
 ConditionsComfort  
Time TempWeatherWind HumidityBarometerVisibility
1:50 am
Tue, Apr 25
14 °FLight snow. Overcast.No wind85%29.74 "HgN/A
1:20 am10 °FPassing clouds.No wind85%29.74 "HgN/A
12:50 am12 °FPassing clouds.2 mph92%29.74 "HgN/A
12:20 am14 °FCold.No wind85%29.74 "HgN/A
11:50 pm
Mon, Apr 24
16 °FPassing clouds.1 mph93%29.74 "HgN/A
11:20 pm18 °FClear.No wind86%29.74 "Hg10 mi
10:50 pm18 °FClear.No wind86%29.74 "Hg10 mi
10:20 pm21 °FPassing clouds.2 mph86%29.74 "HgN/A
9:50 pm23 °FClear.3 mph80%29.71 "Hg10 mi
9:20 pm25 °FClear.3 mph80%29.71 "Hg10 mi
8:50 pm27 °FChilly.3 mph74%29.71 "HgN/A
8:20 pm28 °FSunny.5 mph69%29.71 "Hg10 mi
7:50 pm30 °FPassing clouds.7 mph69%29.71 "HgN/A
7:20 pm30 °FScattered clouds.6 mph69%29.71 "HgN/A
6:50 pm32 °FScattered clouds.7 mph64%29.71 "HgN/A
6:20 pm32 °FScattered clouds.6 mph64%29.71 "HgN/A
5:50 pm32 °FScattered clouds.3 mph60%29.68 "HgN/A
5:20 pm32 °FScattered clouds.3 mph64%29.68 "HgN/A
4:50 pm32 °FPassing clouds.6 mph64%29.68 "HgN/A
4:20 pm32 °FScattered clouds.6 mph64%29.68 "HgN/A
3:50 pm30 °FPartly sunny.5 mph69%29.68 "HgN/A
3:20 pm32 °FPartly sunny.5 mph69%29.68 "HgN/A
2:50 pm32 °FPartly sunny.3 mph69%29.68 "HgN/A
1:50 pm30 °FOvercast.2 mph75%29.68 "HgN/A
1:20 pm30 °FLight snow. Overcast.3 mph75%29.68 "HgN/A
12:50 pm28 °FOvercast.3 mph80%29.68 "HgN/A
12:20 pm28 °FOvercast.3 mph80%29.68 "HgN/A
11:50 am28 °FOvercast.1 mph80%29.68 "HgN/A
11:20 am28 °FOvercast.3 mph80%29.68 "HgN/A
10:50 am27 °FMostly cloudy.3 mph80%29.68 "HgN/A
10:20 am25 °FLight snow. Low clouds.5 mph86%29.68 "HgN/A
9:50 am25 °FLight snow. Low clouds.5 mph80%29.65 "HgN/A
9:20 am23 °FLight snow. Low clouds.5 mph86%29.65 "HgN/A
8:50 am23 °FLight snow. Low clouds.5 mph86%29.65 "HgN/A
8:20 am23 °FLight snow. Low clouds.3 mph86%29.65 "HgN/A
7:50 am21 °FLight snow. Low clouds.3 mph93%29.65 "HgN/A
7:20 am21 °FLight snow. Overcast.3 mph93%29.65 "Hg3 mi
6:50 am21 °FSnow. Ice fog.3 mph93%29.65 "Hg1 mi
6:20 am19 °FHeavy snow. More clouds than sun.6 mph93%29.62 "Hg1 mi
5:50 am21 °FLow clouds.5 mph86%29.62 "HgN/A
5:20 am19 °FLight snow. Low clouds.6 mph93%29.62 "HgN/A
4:50 am19 °FLight snow. Low clouds.5 mph93%29.62 "HgN/A
4:20 am19 °FLight snow. Low clouds.5 mph93%29.62 "HgN/A
3:50 am19 °FLight snow. Mostly cloudy.5 mph93%29.62 "HgN/A
3:20 am19 °FLight snow. Overcast.5 mph93%29.62 "HgN/A
Weather by CustomWeather, © 2017

See weather overviewHow to use our weather pages